www.pogodaiklimat.ru

Погода и климат >> Архив погоды >> Самоа >> Le Mafa


ПОГОДА в Le Mafa

  • Прогноз погоды в Le Mafa
  • Монитор погоды в Le Mafa
  • Климат города

АРХИВ ПОГОДЫ в Le Mafa

Время (UTC), дата Ветер
(напр.,м/с)
 
Видим.   Явления Облачность Т
(С)
Тd
(С)
f
(%)
Тe
(С)
Тes
(С)
Комфортность P
(гПа)
Po
(гПа)
Тmin
(С)
Tmax
(С)
R
(мм)
R24
(мм)
S
(см)
09 11.10 Ю 1 н/о н/о -40.0 0.0 100 -45 -45 опасность
обморожения
1023.9 981.2 15
12 11.10 0 н/о
15 11.10 СЗ 3 н/о н/о -40.0 0.0 100 -52 -52 опасность
обморожения
1021.3 978.8
21 11.10 СЗ 3 н/о н/о -40.0 0.0 100 -51 -51 опасность
обморожения
1024.1 981.4 0.5
00 12.10 СЗ 3 н/о н/о -40.0 0.0 100 -52 -52 опасность
обморожения
1023.1 980.5 -40.0
03 12.10 СЗ 4 н/о н/о -40.0 0.0 100 -53 -53 опасность
обморожения
1022.5 979.9
06 12.10 СЗ 2 н/о н/о -40.0 0.0 100 -49 -49 опасность
обморожения
1023.6 981.0 0.5
09 12.10 СЗ 2 н/о н/о -40.0 0.0 100 -48 -48 опасность
обморожения
1024.7 982.0
12 12.10 0 н/о -40.0 +23 +23 комфорт 1023.6 980.9
15 12.10 СЗ 1 н/о н/о -40.0 0.0 100 -42 -42 опасность
обморожения
1022.6 980.0 1
18 12.10 СЗ 2 н/о н/о -40.0 0.0 100 -48 -48 опасность
обморожения
1024.1 981.4
21 12.10 СЗ 2 н/о н/о -40.0 0.0 100 -48 -48 опасность
обморожения
1024.6 981.9
00 13.10 СЗ 3 н/о н/о -40.0 0.0 100 -51 -51 опасность
обморожения
1023.3 980.7 -40.0
03 13.10 СЗ 3 н/о н/о -40.0 0.0 100 -51 -51 опасность
обморожения
1023.3 980.7 -40.0
06 13.10 СЗ 2 н/о н/о -40.0 0.0 100 -48 -48 опасность
обморожения
1023.4 980.8
09 13.10 З 1 н/о н/о -40.0 0.0 100 -45 -45 опасность
обморожения
1025.0 982.3
12 13.10 0 н/о -40.0 +26 +26 очень
душно
1023.9 981.2
15 13.10 СЗ 1 н/о н/о -40.0 0.0 100 -42 -42 опасность
обморожения
1022.8 980.2
18 13.10 СЗ 1 н/о н/о -40.0 0.0 100 -45 -45 опасность
обморожения
1024.5 981.8
21 13.10 СЗ 1 н/о н/о -40.0 0.0 100 -45 -45 опасность
обморожения
1025.4 982.7
00 14.10 СЗ 2 н/о н/о -40.0 0.0 100 -49 -49 опасность
обморожения
1023.5 980.9 -40.0
03 14.10 СЗ 1 н/о н/о -40.0 0.0 100 -45 -45 опасность
обморожения
1022.6 980.0
06 14.10 СЗ 2 н/о н/о -40.0 0.0 100 -48 -48 опасность
обморожения
1024.0 981.3
09 14.10 штиль 0 н/о н/о -40.0 0.0 100 -40 -40 опасность
обморожения
1025.5 982.8
12 14.10 штиль 0 н/о н/о -40.0 0.0 100 -40 -40 опасность
обморожения
1024.8 982.1 -40.0 2
15 14.10 СЗ 1 н/о н/о -40.0 0.0 100 -42 -42 опасность
обморожения
1024.0 981.3
18 14.10 СЗ 1 н/о н/о -40.0 0.0 100 -42 -42 опасность
обморожения
1025.5 982.8
21 14.10 СЗ 1 н/о н/о -40.0 0.0 100 -45 -45 опасность
обморожения
1026.3 983.5
00 15.10 СЗ 3 н/о н/о -40.0 0.0 100 -51 -51 опасность
обморожения
1024.2 981.5 -40.0
03 15.10 СЗ 1 н/о н/о -40.0 0.0 100 -42 -42 опасность
обморожения
1022.9 980.3
06 15.10 штиль 0 н/о н/о -40.0 0.0 100 -40 -40 опасность
обморожения
1024.1 981.4
09 15.10 штиль 0 н/о н/о -40.0 0.0 100 -40 -40 опасность
обморожения
1025.2 982.5
12 15.10 штиль 0 н/о н/о -40.0 0.0 100 -40 -40 опасность
обморожения
1023.7 981.1 -40.0
15 15.10 ЮВ 1 н/о н/о -40.0 0.0 100 -42 -42 опасность
обморожения
1022.5 979.9
18 15.10 Ю 1 н/о н/о -40.0 0.0 100 -42 -42 опасность
обморожения
1024.2 981.5
21 15.10 штиль 0 н/о н/о -40.0 0.0 100 -40 -40 опасность
обморожения
1025.2 982.5
00 16.10 СЗ 1 н/о н/о -40.0 0.0 100 -42 -42 опасность
обморожения
1023.5 980.9 -40.0
03 16.10 С 1 н/о н/о -40.0 0.0 100 -42 -42 опасность
обморожения
1022.3 979.7
06 16.10 Ю 1 н/о н/о -40.0 0.0 100 -45 -45 опасность
обморожения
1023.1 980.5
09 16.10 Ю 1 н/о н/о -40.0 0.0 100 -45 -45 опасность
обморожения
1024.4 981.7
15 16.10 Ю 1 н/о н/о -40.0 0.0 100 -42 -42 опасность
обморожения
1021.9 979.3 0.5
18 16.10 Ю 2 н/о н/о -40.0 0.0 100 -48 -48 опасность
обморожения
1023.2 980.6
21 16.10 СЗ 1 н/о н/о -40.0 0.0 100 -45 -45 опасность
обморожения
1024.1 981.4
00 17.10 СЗ 3 н/о н/о -40.0 0.0 100 -51 -51 опасность
обморожения
1022.7 980.1 -40.0
03 17.10 СЗ 2 н/о н/о -40.0 0.0 100 -49 -49 опасность
обморожения
1021.5 978.9
06 17.10 штиль 0 н/о н/о -40.0 0.0 100 -40 -40 опасность
обморожения
1022.3 979.7
09 17.10 штиль 0 н/о н/о -40.0 0.0 100 -40 -40 опасность
обморожения
1023.9 981.2
12 17.10 0 н/о
15 17.10 штиль 0 н/о н/о -40.0 0.0 100 -40 -40 опасность
обморожения
1022.4 979.8
18 17.10 0 н/о
00 18.10 0 н/о
06 18.10 0 н/о

 

Местоположение метеостанции Le Mafa (Самоа): широта -13.96 долгота -171.60 высота над уровнем моря 292 м.

В архиве по умолчанию представлена погода в Le Mafa за последнюю неделю. Архивные данные за месяц целиком и за предыдущие месяцы, начиная с января 2011 года, Вы можете получить, выбрав интересующий диапазон дат из раскрывающегося списка и нажав кнопку "Ввод!".


*Определитесь, кто Вы:
робот инопланетянин человек

Внимание! Время в таблицах - всемирное. Для получения местного времени необходимо прибавить поправку, которая в Le Mafa равна 13 ч.

Смотрите также архив погоды в соседних городах и на ближайших метеорологических станциях:

Погода в Lufi-Lufi (Самоа) (10 км)
Погода в Togitogiga (Самоа) (20 км)
Погода в Apia (Американское Самоа) (21 км)
Погода в Faleolo Int East (Самоа) (45 км)
Погода в Faleolo Int Airport (Американское Самоа) (46 км)
Погода в Faleolo Int Airport (Самоа) (48 км)
Погода в Manono (Самоа) (56 км)
Погода в Maota Int Airport (Самоа) (75 км)
Погода в Le Piu Tai (Самоа) (102 км)
Погода в Mount Talu (Самоа) (129 км)

Пояснения к столбцам:

Ветер - указаны скорость ветра в м/с - средняя за 10 мин, порывы в срок и между сроками (в фигурных скобках) и направление, откуда дует ветер: С - северный, СВ - северо-восточный, В - восточный, ЮВ - юго-восточный, Ю - южный, ЮЗ - юго-западный, З - западный, СЗ - северо-западный.
Видимость - горизонтальная дальность видимости в метрах или километрах. При видимости от 1 до 10 км при отсутствии осадков обычно наблюдается дымка, при ухудшении видимости до 1 км и менее - туман. В сухую погоду видимость может ухудшаться дымом, пылью или мглою.
Явления - указаны атмосферные явления, наблюдавшиеся в срок или в последний час перед сроком; фигурными скобками обозначены явления, наблюдавшиеся между сроками (за 1-3 часа до срока); квадратными скобками обозначены град или гололедные отложения с указанием их диаметра в мм.
Облачность - указаны через наклонную черту общая и нижняя облачность в баллах и высота нижней границы облаков в метрах; квадратными скобками обозначены формы облаков: Ci - перистые, Cs - перисто-слоистые, Cc - перисто-кучевые, Ac - высококучевые, As - высокослоистые, Sc - слоисто-кучевые, Ns - слоисто-дождевые, Cu - кучевые, Cb - кучево-дождевые. Подробнее классификацию облаков см. в Атласе облаков (PDF).
T - Температура воздуха - температура, измеренная на высоте 2 м над землей.
Td - Температура точки росы - температура, при понижении до которой содержащийся в воздухе водяной пар достигнет насыщения.
f - Относительная влажность воздуха - влажноcть воздуха, измеренная на высоте 2 м над землей.
Te - Эффективная температура - температура, которую ощущает одетый по сезону человек в тени. Характеристика душности погоды. При расчете учитывается влияние влажности воздуха и скорости ветра на теплоощущения человека.
Tes - Эффективная температура на солнце - температура, которую ощущает человек, с поправкой на солнечный нагрев. Характеристика знойности погоды. Зависит от высоты солнца над горизонтом, облачности и скорости ветра. Ночью, в пасмурную погоду, а также при ветре 12 м/с и более поправка равна нулю.
P - Атмосферное давление - приведенное к уровню моря атмосферное давление.
Po - Атмосферное давление - измеренное на уровне метеостанции атмосферное давление.
Tmin - Минимальная температура - минимум температуры воздуха на высоте 2 м над землей.
Tmax - Максимальная температура - максимум температуры воздуха на высоте 2 м над землей.
R - Количество осадков - Количество выпавших осадков за период времени, мм. При наведении курсора мыши на число - период времени, за который выпало указанное количество осадков.
R24 - Количество осадков - Количество выпавших осадков за 24 часа, мм.
S - Снежный покров - Высота снежного покрова, см. При наведении курсора мыши на число - состояние снежного покрова и степень покрытия местности в баллах.